Date,TemperatureHighF,TemperatureAvgF,TemperatureLowF,DewpointHighF,DewpointAvgF,DewpointLowF,HumidityHigh,HumidityAvg,HumidityLow,PressureMaxIn,PressureMinIn,WindSpeedMaxMPH,WindSpeedAvgMPH,GustSpeedMaxMPH,PrecipitationSumIn
2013-1-1,36.6,31.4,19.3,27.0,18.6,6.0,75,60,49,29.59,29.38,15,5,27,0.03
2013-1-2,29.7,19.2,8.1,16.0,8.8,1.0,83,64,54,29.77,29.57,10,3,18,0.00
2013-1-3,25.2,13.4,4.5,10.0,-0.2,-6.0,82,57,30,29.81,29.65,10,2,22,0.00
2013-1-4,37.9,26.6,8.2,25.0,18.7,5.0,94,73,56,29.64,29.48,15,3,21,0.05
2013-1-5,42.1,32.2,18.4,25.0,21.7,16.0,91,67,44,29.92,29.52,10,3,17,0.08
2013-1-6,43.1,30.2,19.2,29.0,24.8,17.0,94,81,57,29.88,29.60,10,1,15,0.05
2013-1-7,39.1,29.4,14.9,30.0,21.7,13.0,96,75,42,30.05,29.63,13,2,14,0.01
2013-1-8,46.6,30.5,13.0,29.0,23.6,11.0,95,78,50,30.02,29.92,8,2,17,0.00
2013-1-9,44.1,32.3,18.5,36.0,27.1,17.0,96,82,54,30.06,29.67,9,2,17,0.00
2013-1-10,46.5,39.4,28.1,29.0,25.2,24.0,84,58,42,30.20,29.72,15,4,27,0.00
2013-1-11,38.6,31.0,21.7,33.0,27.2,20.0,96,86,67,30.19,29.88,3,0,4,0.10
2013-1-12,40.8,36.6,33.8,40.0,35.9,33.0,98,97,96,29.87,29.79,3,0,5,0.02
2013-1-13,49.2,42.9,35.6,48.0,42.5,35.0,99,98,95,29.81,29.66,8,1,16,0.01
2013-1-14,58.8,48.9,39.7,52.0,41.9,29.0,98,79,41,29.91,29.52,10,3,16,0.00
2013-1-15,40.4,35.6,29.5,30.0,27.0,25.0,90,72,56,29.98,29.89,8,1,11,0.00
2013-1-16,33.1,31.7,29.5,32.0,30.1,27.0,97,93,82,29.91,29.49,4,0,6,0.03
2013-1-17,41.5,33.5,26.1,34.0,26.8,14.0,97,78,55,29.75,29.49,7,2,17,0.27
2013-1-18,28.7,21.3,14.1,15.0,4.1,-2.0,74,49,31,30.10,29.71,13,4,21,0.00
2013-1-19,47.6,35.5,19.0,31.0,22.5,9.0,84,60,41,30.03,29.54,12,3,23,0.00
2013-1-20,51.3,39.8,28.2,33.0,25.5,10.0,85,59,32,29.59,29.21,19,5,32,0.00
2013-1-21,28.4,24.1,19.3,20.0,11.9,6.0,91,62,43,29.75,29.46,11,2,22,0.00
2013-1-22,23.9,19.1,12.0,19.0,7.2,-2.0,94,63,35,29.74,29.42,15,4,22,0.00
2013-1-23,16.1,10.6,6.4,2.0,-5.4,-9.0,68,50,35,29.80,29.72,13,5,24,0.00
2013-1-24,20.6,10.5,1.2,-4.0,-7.0,-9.0,67,46,30,29.89,29.73,16,4,30,0.00
2013-1-25,23.4,15.7,7.3,13.0,-3.9,-9.0,83,43,27,29.97,29.72,8,2,17,0.00
2013-1-26,24.0,15.3,3.1,13.0,2.8,-7.0,90,61,33,29.90,29.67,14,4,19,0.00
2013-1-27,30.7,19.7,11.9,6.0,3.0,-1.0,72,51,28,30.12,29.90,13,3,19,0.00
2013-1-28,30.6,23.6,13.7,25.0,15.0,4.0,94,72,40,30.10,29.68,7,1,10,0.00
2013-1-29,33.5,29.6,24.9,32.0,27.8,23.0,96,93,89,29.86,29.68,4,1,5,0.14
2013-1-30,58.5,46.1,32.9,57.0,45.0,32.0,99,96,92,29.80,29.10,11,2,19,0.12
2013-1-31,60.4,47.1,30.2,59.0,37.6,16.0,97,72,42,29.26,28.64,17,7,32,0.53
2013-2-1,32.5,27.9,21.1,17.0,9.2,5.0,58,46,37,29.75,29.26,13,6,22,0.00
2013-2-2,30.7,23.8,15.4,13.0,7.8,4.0,64,51,39,29.90,29.70,12,3,14,0.00
2013-2-3,27.0,24.2,18.2,23.0,20.0,14.0,92,84,62,29.71,29.40,6,2,9,0.00
2013-2-4,29.3,23.4,16.8,21.0,11.9,7.0,90,63,40,29.61,29.39,11,4,27,0.00
2013-2-5,29.8,24.3,17.2,22.0,15.5,10.0,90,70,53,29.68,29.59,3,0,8,0.00
2013-2-6,38.2,29.3,21.8,26.0,18.4,4.0,94,67,40,29.96,29.58,15,3,19,0.02
2013-2-7,30.6,23.9,13.0,12.0,6.3,4.0,84,49,32,30.18,29.96,9,2,13,0.00
2013-2-8,26.7,23.6,18.0,25.0,19.5,10.0,94,85,56,30.14,29.30,22,6,33,0.00
2013-2-9,21.2,18.7,13.4,20.0,17.2,12.0,94,93,92,29.87,29.27,25,9,32,0.00
2013-2-10,33.5,18.7,1.6,32.0,17.1,-1.0,97,93,88,30.05,29.87,8,2,14,0.04
2013-2-11,39.9,26.2,9.1,39.0,25.2,7.0,98,95,91,30.00,29.28,4,0,9,0.18
2013-2-12,44.6,38.7,33.0,40.0,30.2,25.0,98,73,56,29.56,29.28,19,5,24,0.00
2013-2-13,44.2,34.5,24.5,26.0,24.2,20.0,87,68,46,29.53,29.37,8,2,11,0.00
2013-2-14,47.4,34.4,24.8,25.0,22.4,21.0,89,64,38,29.64,29.38,8,2,12,0.00
2013-2-15,53.1,36.2,21.4,35.0,28.6,19.0,96,77,48,29.65,29.55,8,1,16,0.00
2013-2-16,37.7,33.8,27.8,32.0,27.7,18.0,95,79,57,29.62,29.40,11,3,17,0.02
2013-2-17,28.5,21.8,16.6,21.0,10.6,1.0,90,64,44,29.38,29.09,24,8,31,0.00
2013-2-18,32.5,22.3,13.4,5.0,1.3,-1.0,56,42,25,29.82,29.37,16,6,27,0.00
2013-2-19,48.1,32.7,14.9,39.0,23.7,3.0,97,71,49,29.83,29.25,6,1,18,0.23
2013-2-20,39.6,31.6,25.9,39.0,19.7,11.0,97,63,42,29.45,29.21,16,6,27,0.00
2013-2-21,33.2,27.6,23.8,17.0,14.1,11.0,70,57,45,29.86,29.43,14,6,24,0.00
2013-2-22,41.3,30.7,16.7,25.0,20.4,14.0,91,67,42,30.04,29.87,12,2,16,0.00
2013-2-23,37.8,33.1,27.4,33.0,28.9,23.0,96,85,74,29.99,29.58,3,1,10,0.00
2013-2-24,34.4,33.5,31.9,33.0,32.7,31.0,97,96,95,29.57,29.38,9,3,14,0.49
2013-2-25,39.5,33.3,24.2,35.0,31.4,23.0,97,92,81,29.90,29.57,6,0,8,0.32
2013-2-26,44.3,36.7,31.6,37.0,30.8,29.0,97,81,61,30.00,29.82,5,1,10,0.00
2013-2-27,41.4,37.4,33.7,40.0,36.0,31.0,97,94,84,29.82,29.25,10,4,19,1.29
2013-2-28,45.9,37.0,29.7,38.0,34.3,28.0,97,90,75,29.31,29.20,6,1,10,0.01
2013-3-1,41.7,36.4,28.2,35.0,29.7,27.0,97,78,62,29.36,29.21,10,3,19,0.00
2013-3-2,40.6,36.7,32.2,30.0,27.8,26.0,78,70,63,29.35,29.30,9,3,14,0.00
2013-3-3,40.1,34.4,31.5,32.0,28.2,25.0,92,78,66,29.32,29.24,8,2,13,0.00
2013-3-4,40.1,33.7,27.8,27.0,24.0,20.0,77,68,54,29.42,29.26,15,6,21,0.00
2013-3-5,44.3,35.6,29.9,30.0,26.6,23.0,91,71,55,29.73,29.42,12,3,15,0.00
2013-3-6,39.0,35.8,33.3,35.0,33.3,31.0,95,90,76,29.77,29.71,17,6,22,0.15
2013-3-7,34.2,32.1,30.3,32.0,30.4,29.0,97,93,84,29.74,29.67,18,10,27,0.04
2013-3-8,35.9,32.1,29.8,35.0,31.0,27.0,98,96,69,29.82,29.62,16,7,21,0.16
2013-3-9,51.8,36.6,24.4,32.0,23.9,19.0,94,64,28,30.02,29.82,11,3,19,0.15
2013-3-10,50.8,35.5,20.3,33.0,28.5,19.0,96,78,48,30.08,29.95,7,1,8,0.00
2013-3-11,55.1,42.7,33.7,39.0,35.2,31.0,92,76,49,29.98,29.81,7,2,13,0.00
2013-3-12,54.3,45.6,36.2,51.0,44.2,35.0,98,95,83,29.81,29.39,10,1,15,0.39
2013-3-13,50.2,42.2,29.3,44.0,29.4,21.0,92,63,34,29.46,29.38,13,4,17,0.00
2013-3-14,34.8,30.7,22.4,25.0,15.5,6.0,70,54,42,29.52,29.39,14,5,24,0.00
2013-3-15,40.6,30.3,19.5,28.0,15.9,7.0,79,57,29,29.54,29.30,12,5,20,0.00
2013-3-16,39.4,32.6,27.4,28.0,17.9,10.0,83,57,32,29.55,29.35,10,3,13,0.00
2013-3-17,37.6,29.7,20.7,19.0,12.2,4.0,85,51,26,29.97,29.54,13,3,20,0.00
2013-3-18,38.6,28.1,13.1,27.0,9.4,3.0,90,50,23,30.12,29.88,5,1,10,0.00
2013-3-19,34.6,32.1,28.6,33.0,30.9,27.0,96,95,93,29.81,29.31,12,4,19,0.33
2013-3-20,40.3,31.1,23.3,26.0,21.5,18.0,93,70,44,29.48,29.38,14,4,21,0.43
2013-3-21,39.7,27.5,16.1,28.0,20.2,14.0,94,77,45,29.48,29.28,5,1,10,0.10
2013-3-22,40.4,32.9,26.2,24.0,19.1,16.0,90,58,39,29.42,29.29,13,4,18,0.00
2013-3-23,42.6,35.4,28.7,24.0,20.6,18.0,75,56,39,29.47,29.33,13,5,25,0.00
2013-3-24,46.2,37.5,29.2,26.0,23.4,20.0,86,58,42,29.49,29.39,11,3,17,0.00
2013-3-25,41.7,35.1,28.3,32.0,28.4,24.0,86,77,68,29.43,29.19,12,4,18,0.00
2013-3-26,49.2,39.9,32.4,30.0,26.1,21.0,75,60,33,29.45,29.22,10,3,13,0.00
2013-3-27,53.4,40.5,25.7,31.0,25.2,22.0,87,58,33,29.54,29.42,11,3,18,0.00
2013-3-28,49.6,42.6,35.9,36.0,32.8,30.0,92,70,47,29.69,29.54,10,3,15,0.00
2013-3-29,57.5,44.7,29.1,36.0,31.5,27.0,94,63,34,29.72,29.64,9,3,15,0.00
2013-3-30,56.8,45.4,31.3,33.0,25.2,17.0,79,51,22,29.77,29.67,11,3,17,0.00
2013-3-31,59.7,43.3,24.0,41.0,28.6,22.0,94,63,25,29.79,29.40,12,2,20,0.05
2013-4-1,61.8,45.7,34.3,44.0,35.9,13.0,96,72,37,29.47,29.18,13,4,31,0.05
2013-4-2,39.6,33.8,28.4,21.0,14.8,10.0,63,46,32,29.61,29.47,19,6,25,0.00
2013-4-3,44.7,36.3,29.5,23.0,14.9,12.0,71,43,27,29.83,29.61,21,7,26,0.00
2013-4-4,56.1,41.2,28.3,27.0,18.0,13.0,64,42,21,29.97,29.71,13,4,16,0.00
2013-4-5,61.4,45.4,36.0,30.0,27.1,19.0,77,53,20,29.71,29.31,11,4,20,0.00
2013-4-6,46.1,37.1,26.9,26.0,13.2,3.0,65,41,17,30.00,29.56,14,4,21,0.00
2013-4-7,56.9,41.9,22.2,39.0,28.3,17.0,86,62,29,30.00,29.67,13,3,25,0.00
2013-4-8,66.3,50.7,36.5,44.0,39.5,35.0,97,70,31,29.74,29.63,9,1,14,0.00
2013-4-9,70.4,56.2,46.0,54.0,45.4,41.0,96,70,41,29.73,29.54,14,2,22,0.06
2013-4-10,65.3,53.8,46.2,51.0,47.6,44.0,95,81,57,29.68,29.51,6,1,9,0.25
2013-4-11,55.3,48.0,40.8,48.0,39.4,27.0,96,75,41,29.81,29.49,11,4,15,0.01
2013-4-12,40.8,39.0,38.5,37.0,36.7,35.0,94,91,80,29.82,29.79,6,1,10,0.01
2013-4-13,53.5,48.5,35.3,40.0,36.8,34.0,95,66,53,29.62,29.48,9,2,12,0.02
2013-4-14,51.4,42.7,32.1,41.0,33.5,27.0,96,73,40,29.89,29.59,16,3,21,0.01
2013-4-15,60.9,44.7,27.1,39.0,32.5,26.0,96,66,38,30.05,29.89,8,1,11,0.00
2013-4-16,67.4,51.8,33.5,52.0,42.7,32.0,96,73,45,30.06,29.73,16,3,21,0.03
2013-4-17,66.8,57.5,43.1,54.0,39.1,29.0,92,54,25,30.00,29.73,10,4,20,0.00
2013-4-18,65.0,50.3,32.6,45.0,35.4,30.0,93,61,35,30.09,29.80,11,2,18,0.00
2013-4-19,75.6,62.9,52.1,63.0,57.8,46.0,97,84,62,29.80,29.31,21,4,22,0.00
2013-4-20,66.2,53.1,42.0,63.0,40.6,23.0,95,66,36,29.90,29.28,20,5,20,0.24
2013-4-21,53.3,42.5,32.4,28.0,23.3,19.0,80,49,27,30.34,29.91,13,4,21,0.00
2013-4-22,52.2,41.2,29.1,35.0,30.4,26.0,93,68,38,30.41,30.26,11,3,16,0.00
2013-4-23,41.5,39.5,37.4,40.0,36.8,32.0,96,90,75,30.25,29.82,13,5,21,0.01
2013-4-24,77.0,56.6,40.9,52.0,44.6,39.0,96,70,27,29.79,29.45,11,4,16,0.00
2013-4-25,64.1,54.0,38.7,53.0,36.9,23.0,92,57,25,29.94,29.50,14,4,19,0.02
2013-4-26,63.1,48.3,32.4,42.0,35.1,29.0,90,63,41,30.09,29.94,11,2,13,0.00
2013-4-27,66.2,50.2,32.3,41.0,36.1,31.0,96,63,32,30.09,29.94,7,1,9,0.00
2013-4-28,73.2,53.7,33.0,45.0,36.4,29.0,97,58,29,30.00,29.86,9,1,15,0.00
2013-4-29,70.9,56.6,41.5,49.0,37.5,24.0,93,53,28,29.93,29.84,9,2,16,0.00
2013-4-30,71.9,57.2,42.1,39.0,32.3,25.0,82,43,18,30.02,29.91,5,1,10,0.00
2013-5-1,71.9,53.9,32.1,44.0,35.5,30.0,95,56,26,30.12,30.02,5,1,9,0.00
2013-5-2,80.0,56.1,38.0,50.0,41.3,36.0,97,63,26,30.15,29.98,7,1,17,0.00
2013-5-3,63.0,50.5,38.1,47.0,41.7,36.0,93,73,54,30.18,30.05,12,2,16,0.00
2013-5-4,64.5,49.9,34.7,48.0,38.8,33.0,97,70,36,30.05,29.95,8,2,19,0.00
2013-5-5,65.2,48.6,32.9,45.0,38.6,32.0,97,72,43,30.00,29.89,4,1,11,0.00
2013-5-6,75.9,54.2,31.3,52.0,42.5,30.0,98,70,31,29.95,29.79,5,1,9,0.00
2013-5-7,80.0,62.2,39.3,60.0,51.1,38.0,98,71,41,29.84,29.74,7,1,11,0.00
2013-5-8,71.7,61.3,48.7,66.0,57.7,47.0,98,89,70,29.86,29.71,7,1,15,0.02
2013-5-9,68.6,61.6,57.9,63.0,59.5,57.0,97,93,75,29.71,29.55,5,0,7,0.17
2013-5-10,79.8,65.3,48.3,63.0,55.7,48.0,99,75,38,29.62,29.55,6,1,10,0.13
2013-5-11,69.6,63.4,58.5,63.0,59.7,55.0,96,88,76,29.57,29.36,13,2,19,0.05
2013-5-12,70.0,60.4,48.5,61.0,51.2,33.0,96,75,44,29.48,29.24,12,2,22,0.06
2013-5-13,57.6,49.1,40.9,34.0,31.5,28.0,73,52,37,29.69,29.49,13,3,21,0.02
2013-5-14,59.3,47.8,34.4,37.0,33.0,29.0,93,60,33,29.73,29.65,7,2,15,0.00
2013-5-15,65.1,47.8,29.7,53.0,40.7,28.0,97,80,36,29.72,29.35,11,1,18,0.06
2013-5-16,81.2,68.2,50.0,53.0,42.8,33.0,96,45,23,29.46,29.31,12,4,24,0.00
2013-5-17,68.6,57.6,43.0,46.0,42.0,37.0,94,59,34,29.88,29.46,17,3,17,0.00
2013-5-18,74.2,57.5,36.3,50.0,42.4,35.0,98,63,30,29.97,29.88,8,2,14,0.00
2013-5-19,72.5,57.5,42.4,55.0,50.3,41.0,97,79,47,30.00,29.88,11,2,15,0.08
2013-5-20,82.9,68.2,55.9,68.0,61.8,55.0,98,82,55,29.87,29.58,8,2,14,0.01
2013-5-21,89.7,65.3,51.2,71.0,59.8,50.0,99,85,47,29.68,29.50,11,2,16,0.10
2013-5-22,76.8,60.3,50.4,69.0,57.2,49.0,98,90,75,29.72,29.53,9,1,13,0.20
2013-5-23,73.3,64.4,55.2,70.0,62.5,54.0,99,93,85,29.59,29.46,9,1,15,0.01
2013-5-24,73.1,62.9,48.3,67.0,60.1,47.0,98,91,74,29.50,29.32,11,2,14,0.54
2013-5-25,51.0,46.8,40.8,49.0,45.6,39.0,97,95,93,29.50,29.40,12,4,18,0.26
2013-5-26,57.9,48.6,39.5,43.0,39.8,37.0,93,73,51,29.78,29.41,17,5,22,0.01
2013-5-27,72.5,55.9,35.0,48.0,40.5,34.0,97,63,28,29.84,29.75,14,2,19,0.00
2013-5-28,78.1,59.4,39.2,56.0,47.2,38.0,97,69,32,29.90,29.81,7,1,10,0.00
2013-5-29,74.4,63.8,58.1,68.0,61.4,54.0,97,92,79,29.84,29.65,10,1,17,0.72
2013-5-30,88.0,73.8,57.9,72.0,66.2,57.0,99,79,53,29.75,29.67,9,2,15,0.00
2013-5-31,93.3,77.5,58.1,76.0,65.3,57.0,99,71,40,29.75,29.59,7,2,15,0.00
2013-6-1,93.1,80.7,62.9,73.0,67.3,61.0,93,67,39,29.64,29.51,7,2,14,0.00
2013-6-2,89.7,77.3,68.0,73.0,67.8,64.0,92,74,46,29.54,29.38,12,3,28,0.00
2013-6-3,79.5,69.2,59.6,71.0,63.2,45.0,97,83,55,29.51,29.42,5,1,12,0.62
2013-6-4,72.7,61.0,48.3,52.0,46.4,41.0,92,60,40,29.75,29.49,11,2,16,0.00
2013-6-5,76.0,61.1,43.7,58.0,49.3,42.0,98,69,37,29.85,29.75,6,1,12,0.00
2013-6-6,75.6,62.5,49.4,58.0,52.5,47.0,97,73,46,29.85,29.76,8,1,14,0.02
2013-6-7,58.6,56.0,53.1,58.0,54.9,52.0,97,96,92,29.76,29.48,6,1,11,1.57
2013-6-8,78.9,63.2,52.5,66.0,58.2,52.0,98,85,62,29.68,29.30,8,3,14,0.02
2013-6-9,79.9,67.1,54.3,64.0,57.5,53.0,97,74,48,29.83,29.68,8,2,15,0.00
2013-6-10,71.2,61.5,50.8,64.0,58.0,50.0,98,89,69,29.86,29.68,3,0,6,0.78
2013-6-11,63.0,58.9,56.3,60.0,57.4,56.0,98,95,87,29.67,29.25,5,1,11,0.64
2013-6-12,70.0,62.8,55.6,58.0,55.5,53.0,98,79,58,29.49,29.24,17,3,22,0.00
2013-6-13,63.8,55.0,46.9,61.0,53.6,46.0,98,94,88,29.49,29.35,4,0,12,0.92
2013-6-14,76.3,60.1,51.4,64.0,55.0,51.0,98,85,49,29.45,29.32,7,2,14,0.31
2013-6-15,79.4,65.2,49.8,59.0,51.5,47.0,97,66,33,29.61,29.46,10,2,16,0.00
2013-6-16,75.3,63.8,46.9,64.0,56.2,46.0,98,78,50,29.61,29.38,7,1,14,0.00
2013-6-17,84.3,68.6,55.7,66.0,60.5,54.0,98,78,46,29.57,29.44,12,2,29,0.23
2013-6-18,74.2,62.2,56.7,68.0,60.3,56.0,99,94,75,29.61,29.54,7,1,17,0.32
2013-6-19,77.5,64.0,51.4,58.0,54.6,49.0,98,75,39,29.81,29.58,6,1,11,0.01
2013-6-20,80.2,64.4,44.6,62.0,52.8,43.0,98,71,35,29.92,29.82,5,1,9,0.00
2013-6-21,85.2,70.2,55.1,71.0,61.0,54.0,96,75,47,29.91,29.85,6,1,10,0.00
2013-6-22,85.4,71.8,57.1,67.0,61.5,55.0,97,72,44,29.88,29.76,13,2,14,0.00
2013-6-23,90.2,76.4,61.4,76.0,67.5,59.0,92,75,58,29.82,29.65,9,2,16,0.00
2013-6-24,92.0,78.8,66.7,78.0,70.9,65.0,98,78,55,29.68,29.54,7,2,19,0.02
2013-6-25,91.0,78.4,66.0,75.0,69.7,64.0,97,76,50,29.59,29.38,11,2,22,0.00
2013-6-26,84.8,75.5,66.6,73.0,69.4,65.0,98,82,63,29.50,29.39,7,1,11,0.00
2013-6-27,76.4,68.8,64.8,71.0,66.6,64.0,97,93,81,29.52,29.41,3,0,9,0.02
2013-6-28,83.2,70.4,60.6,78.0,67.7,60.0,99,91,74,29.41,29.15,11,2,14,0.31
2013-6-29,85.0,75.7,69.1,73.0,70.0,67.0,97,83,60,29.38,29.17,8,2,16,0.00
2013-6-30,87.7,76.1,66.1,75.0,70.4,65.0,98,83,62,29.59,29.38,8,2,13,0.00
2013-7-1,81.3,75.4,71.7,76.0,73.1,70.0,97,92,81,29.73,29.59,5,0,6,0.33
2013-7-2,85.0,76.0,65.8,76.0,72.0,64.0,97,88,72,29.85,29.72,7,1,12,0.00
2013-7-3,88.9,76.0,63.6,78.0,70.2,62.0,98,83,62,29.86,29.79,11,3,15,0.00
2013-7-4,92.1,82.0,71.1,77.0,73.9,69.0,98,78,58,29.86,29.75,9,3,15,0.00
2013-7-5,93.9,83.9,74.1,78.0,74.5,72.0,94,74,53,29.82,29.68,8,3,13,0.00
2013-7-6,90.7,80.1,70.7,77.0,72.8,68.0,98,80,55,29.73,29.64,8,2,11,0.00
2013-7-7,93.6,77.9,67.3,80.0,72.0,66.0,97,83,58,29.68,29.56,6,1,8,0.00
2013-7-8,90.9,77.4,69.2,76.0,71.3,67.0,98,83,55,29.71,29.57,7,1,12,0.00
2013-7-9,75.6,70.3,66.0,71.0,67.6,65.0,97,91,83,29.76,29.70,4,1,6,0.00
2013-7-10,87.4,75.2,67.4,77.0,71.7,65.0,98,89,69,29.72,29.45,10,1,16,0.11
2013-7-11,84.1,75.7,69.2,77.0,72.3,67.0,99,90,68,29.59,29.44,4,0,8,0.05
2013-7-12,81.1,71.1,64.5,67.0,63.5,60.0,90,78,58,29.85,29.59,9,2,15,0.00
2013-7-13,78.0,70.5,64.4,73.0,67.0,60.0,96,89,82,29.96,29.86,4,0,6,0.01
2013-7-14,90.9,79.2,69.8,77.0,72.7,69.0,99,82,54,29.96,29.86,12,1,12,0.00
2013-7-15,92.7,80.6,69.8,80.0,73.2,69.0,98,80,50,29.86,29.75,5,1,9,0.00
2013-7-16,93.1,79.6,64.8,75.0,69.8,63.0,98,75,46,29.82,29.76,10,2,15,0.00
2013-7-17,96.5,81.6,66.6,76.0,71.4,65.0,98,74,46,29.84,29.65,8,1,8,0.00
2013-7-18,97.8,84.8,73.5,80.0,74.2,71.0,95,73,44,29.66,29.57,7,1,10,0.00
2013-7-19,97.3,84.3,69.7,79.0,74.3,68.0,98,74,47,29.60,29.37,10,3,22,0.00
2013-7-20,93.8,82.4,73.2,78.0,73.8,61.0,98,76,55,29.47,29.32,13,2,15,0.00
2013-7-21,88.9,76.4,66.1,72.0,66.0,61.0,91,71,48,29.64,29.47,4,1,9,0.00
2013-7-22,88.4,72.9,61.6,73.0,67.0,60.0,98,83,57,29.67,29.54,7,1,7,0.00
2013-7-23,82.2,72.6,69.1,78.0,71.1,67.0,98,95,76,29.54,29.20,4,0,11,0.16
2013-7-24,84.9,75.9,67.5,73.0,67.8,58.0,99,78,53,29.60,29.24,11,2,14,0.01
2013-7-25,65.2,60.2,58.0,59.0,54.9,49.0,96,83,68,29.76,29.62,7,2,14,0.01
2013-7-26,75.0,65.1,59.1,68.0,62.4,58.0,97,91,75,29.72,29.62,7,2,14,0.01
2013-7-27,85.2,70.8,56.1,71.0,63.7,55.0,99,80,51,29.72,29.64,8,1,10,0.00
2013-7-28,87.4,72.8,60.4,74.0,66.9,58.0,98,84,53,29.68,29.61,3,0,9,0.00
2013-7-29,86.6,74.5,66.1,75.0,69.6,64.0,98,86,63,29.70,29.62,6,1,10,0.01
2013-7-30,81.7,70.9,60.4,65.0,60.5,57.0,94,72,45,29.76,29.69,7,2,13,0.00
2013-7-31,84.6,70.4,56.8,69.0,60.8,56.0,98,75,44,29.80,29.69,6,1,9,0.00
2013-8-1,81.3,66.1,55.7,69.0,62.1,54.0,98,88,63,29.71,29.53,7,1,11,0.01
2013-8-2,83.1,71.8,64.4,70.0,64.5,61.0,98,80,48,29.55,29.46,8,2,16,0.00
2013-8-3,79.8,69.0,60.5,66.0,63.2,59.0,98,83,59,29.53,29.45,8,2,14,0.01
2013-8-4,80.2,66.3,55.2,62.0,58.1,54.0,98,77,47,29.56,29.44,6,2,16,0.02
2013-8-5,76.0,61.7,50.4,55.0,49.7,44.0,98,70,33,29.71,29.56,11,2,18,0.03
2013-8-6,80.7,62.9,45.0,61.0,53.1,43.0,98,74,42,29.81,29.71,3,0,8,0.00
2013-8-7,81.6,66.4,49.4,66.0,56.3,48.0,98,74,43,29.84,29.76,8,1,11,0.01
2013-8-8,81.7,71.3,64.8,74.0,67.7,59.0,97,88,73,29.78,29.66,7,1,13,0.00
2013-8-9,76.5,72.7,70.8,76.0,71.4,69.0,98,96,91,29.68,29.42,6,1,10,0.00
2013-8-10,83.0,72.8,63.0,70.0,62.5,54.0,98,73,42,29.67,29.46,9,2,17,0.00
2013-8-11,79.4,65.8,49.2,63.0,55.7,48.0,98,73,46,29.75,29.66,6,1,10,0.00
2013-8-12,82.7,67.9,54.2,66.0,59.2,53.0,99,77,45,29.69,29.58,7,1,10,0.00
2013-8-13,76.5,66.9,59.3,70.0,64.2,58.0,99,91,71,29.59,29.35,2,0,6,0.00
2013-8-14,74.4,65.4,54.0,64.0,55.5,51.0,98,72,52,29.64,29.34,13,4,19,0.00
2013-8-15,76.5,61.9,48.7,60.0,53.4,48.0,98,77,47,29.77,29.64,8,1,13,0.00
2013-8-16,79.9,63.4,48.1,63.0,55.0,47.0,99,78,45,29.86,29.77,6,1,12,0.00
2013-8-17,83.3,66.0,49.2,68.0,58.0,48.0,98,78,47,29.94,29.86,4,0,8,0.00
2013-8-18,79.4,66.2,53.8,68.0,61.0,53.0,98,85,57,29.93,29.75,5,0,5,0.00
2013-8-19,81.4,68.3,55.5,66.0,61.3,54.0,99,80,55,29.75,29.62,6,1,10,0.00
2013-8-20,86.9,73.3,60.6,69.0,63.3,59.0,96,74,43,29.76,29.65,6,1,10,0.00
2013-8-21,88.6,72.2,56.2,70.0,63.3,55.0,98,77,46,29.81,29.69,7,1,11,0.00
2013-8-22,85.7,72.2,57.2,75.0,67.0,56.0,99,85,59,29.70,29.49,9,2,13,0.00
2013-8-23,80.1,70.7,56.1,69.0,60.3,53.0,95,72,46,29.79,29.49,10,2,14,0.00
2013-8-24,80.6,63.6,50.0,57.0,51.5,48.0,95,69,32,30.00,29.79,6,1,11,0.00
2013-8-25,84.3,64.5,44.9,63.0,52.6,44.0,99,71,33,30.02,29.85,7,1,12,0.00
2013-8-26,80.0,72.2,59.9,69.0,64.5,57.0,91,77,61,29.85,29.54,9,2,15,0.00
2013-8-27,86.6,74.1,66.2,74.0,68.7,65.0,98,85,54,29.56,29.49,4,1,8,0.00
2013-8-28,90.4,72.9,60.5,72.0,66.1,60.0,99,81,50,29.63,29.50,5,0,11,0.00
2013-8-29,67.9,65.1,61.4,66.0,62.8,59.0,96,92,87,29.73,29.60,8,2,13,0.00
2013-8-30,85.3,69.9,58.7,69.0,64.3,57.0,97,84,57,29.70,29.49,9,1,10,0.00
2013-8-31,81.4,73.7,66.9,75.0,71.0,66.0,99,92,80,29.50,29.45,6,1,10,0.00
2013-9-1,79.7,72.7,68.5,76.0,71.5,68.0,98,96,89,29.55,29.45,5,0,15,0.00
2013-9-2,77.5,73.9,70.5,76.0,72.7,70.0,99,96,90,29.52,29.38,8,0,10,0.00
2013-9-3,81.5,71.1,62.2,73.0,67.5,58.0,99,88,71,29.48,29.36,7,1,10,0.00
2013-9-4,80.7,67.9,56.3,62.0,58.4,54.0,95,74,44,29.59,29.47,11,2,14,0.00
2013-9-5,72.2,60.7,46.4,63.0,53.6,44.0,99,81,37,29.81,29.52,8,1,12,0.00
2013-9-6,70.8,54.1,40.1,50.0,44.1,39.0,98,74,37,29.91,29.76,6,1,10,0.00
2013-9-7,80.5,60.5,41.1,60.0,51.3,40.0,98,76,38,29.76,29.52,7,1,10,0.00
2013-9-8,75.4,62.4,43.9,64.0,53.6,42.0,98,76,39,29.76,29.43,11,3,17,0.00
2013-9-9,70.7,54.3,36.8,54.0,45.5,36.0,98,76,44,29.90,29.76,7,1,10,0.00
2013-9-10,79.1,65.9,52.5,72.0,63.2,50.0,97,91,77,29.81,29.70,7,1,16,0.00
2013-9-11,95.4,79.6,66.2,79.0,72.4,65.0,99,81,55,29.74,29.60,7,2,20,0.02
2013-9-12,87.7,75.5,65.3,76.0,70.3,64.0,98,85,63,29.62,29.34,9,2,17,0.60
2013-9-13,79.6,68.1,59.2,70.0,64.3,55.0,99,88,65,29.43,29.23,7,1,12,0.39
2013-9-14,68.6,59.9,51.2,56.0,53.0,48.0,95,79,59,29.72,29.43,9,2,11,0.09
2013-9-15,72.8,57.2,44.0,57.0,49.6,43.0,98,79,43,29.83,29.72,6,1,9,0.09
2013-9-16,68.1,56.5,46.8,58.0,50.9,38.0,98,83,61,29.92,29.68,9,2,15,0.01
2013-9-17,64.7,49.8,36.7,49.0,40.0,35.0,94,72,44,30.09,29.92,9,2,15,0.01
2013-9-18,75.1,53.0,34.4,57.0,43.4,33.0,98,76,34,30.00,29.81,8,1,10,0.00
2013-9-19,82.1,58.9,39.8,61.0,49.9,39.0,98,77,38,29.81,29.70,6,1,7,0.00
2013-9-20,83.8,60.1,41.4,63.0,51.5,40.0,98,78,36,29.75,29.66,4,0,6,0.00
2013-9-21,76.1,62.4,46.2,66.0,58.0,45.0,99,86,64,29.69,29.38,10,2,14,0.00
2013-9-22,69.9,63.2,48.9,67.0,56.4,46.0,97,80,53,29.50,29.27,15,3,18,0.92
2013-9-23,64.5,52.1,41.9,46.0,42.9,40.0,94,73,50,29.68,29.51,8,2,15,0.92
2013-9-24,68.6,52.9,40.9,49.0,42.9,38.0,92,72,38,29.67,29.49,8,2,15,0.00
2013-9-25,70.7,55.1,40.0,57.0,48.2,39.0,97,79,54,29.65,29.53,9,1,11,0.00
2013-9-26,68.7,57.3,49.7,53.0,50.1,47.0,97,79,52,29.79,29.65,5,1,9,0.00
2013-9-27,65.6,57.0,46.3,55.0,52.1,45.0,97,84,68,29.93,29.79,7,1,10,0.00
2013-9-28,74.3,56.7,42.7,58.0,50.3,42.0,98,82,51,30.00,29.93,9,1,10,0.00
2013-9-29,70.3,52.2,38.9,57.0,45.2,38.0,98,81,39,29.93,29.79,4,0,10,0.00
2013-9-30,71.0,53.3,39.8,55.0,47.5,38.0,98,83,50,29.79,29.64,5,0,9,0.00
2013-10-1,79.2,58.6,39.7,61.0,50.3,39.0,98,78,42,29.63,29.52,8,1,12,0.00
2013-10-2,80.5,64.2,50.0,66.0,57.0,49.0,99,80,53,29.63,29.51,8,2,16,0.00
2013-10-3,77.5,59.6,45.0,60.0,50.6,44.0,98,77,36,29.76,29.63,6,1,8,0.00
2013-10-4,66.0,56.2,46.6,60.0,53.9,46.0,98,92,78,29.76,29.71,6,0,8,0.09
2013-10-5,70.4,62.3,56.0,62.0,58.4,55.0,98,88,71,29.79,29.72,5,0,6,0.09
2013-10-6,60.9,56.5,54.0,58.0,55.7,53.0,98,97,91,29.89,29.78,9,1,12,0.16
2013-10-7,77.1,63.5,55.2,73.0,61.3,54.0,99,93,75,29.79,29.47,16,2,19,0.02
2013-10-8,65.8,55.2,40.8,54.0,46.4,40.0,95,74,44,30.04,29.58,7,2,13,0.02
2013-10-9,62.9,48.7,38.4,50.0,43.0,38.0,98,83,56,30.14,30.04,11,1,13,0.01
2013-10-10,60.5,50.2,39.3,54.0,47.4,39.0,98,90,77,30.03,29.85,5,1,9,0.01
2013-10-11,71.4,55.4,44.9,58.0,49.2,42.0,98,82,38,29.85,29.76,7,1,9,0.01
2013-10-12,58.6,52.5,44.1,56.0,50.7,43.0,98,93,88,30.06,29.82,9,2,12,0.01
2013-10-13,58.5,51.1,38.6,52.0,47.3,37.0,98,87,73,30.11,30.04,7,1,12,0.08
2013-10-14,67.8,49.1,34.7,52.0,42.5,34.0,98,81,42,30.07,29.91,7,0,7,0.08
2013-10-15,69.9,55.7,46.3,57.0,50.4,45.0,98,84,57,29.93,29.84,5,1,8,0.00
2013-10-16,60.7,53.7,45.4,56.0,50.9,44.0,99,91,72,29.85,29.59,3,0,7,0.00
2013-10-17,75.5,58.2,45.7,62.0,53.5,45.0,99,86,54,29.59,29.39,7,1,15,0.02
2013-10-18,68.1,58.7,39.7,61.0,50.3,38.0,98,76,47,29.59,29.27,10,2,18,0.06
2013-10-19,68.0,50.6,33.1,54.0,41.6,32.0,98,75,40,29.64,29.42,6,1,12,0.00
2013-10-20,62.1,51.3,34.7,50.0,39.8,32.0,97,69,34,29.69,29.36,17,2,20,0.01
2013-10-21,68.6,48.4,31.2,47.0,38.5,30.0,98,74,35,29.79,29.66,9,1,12,0.00
2013-10-22,66.7,52.1,36.6,57.0,44.2,36.0,98,76,54,29.66,29.39,11,2,14,0.00
2013-10-23,50.8,42.9,31.2,41.0,34.7,30.0,97,74,50,29.47,29.27,5,1,10,0.00
2013-10-24,53.0,44.2,36.7,36.0,28.6,-99.9,85,58,34,29.56,29.33,11,-10,20,0.00
2013-10-25,50.4,38.0,25.9,39.0,28.2,24.0,97,71,43,29.83,29.57,12,2,14,0.00
2013-10-26,55.8,39.3,23.0,39.0,28.5,22.0,97,70,35,29.83,29.55,12,2,23,0.00
2013-10-27,55.1,46.7,37.9,40.0,34.9,30.0,91,66,41,29.73,29.48,12,3,18,0.02
2013-10-28,57.9,41.9,26.2,39.0,30.9,25.0,97,68,42,30.02,29.74,15,2,19,0.00
2013-10-29,50.5,34.9,24.1,28.0,22.8,19.0,93,66,30,30.12,30.03,9,1,10,0.00
2013-10-30,54.4,37.9,25.1,41.0,33.0,22.0,94,83,60,30.03,29.87,8,1,13,0.00
2013-10-31,60.2,44.9,28.0,59.0,43.7,27.0,98,95,86,29.91,29.48,5,0,15,0.20
2013-11-1,68.2,63.2,53.5,63.0,58.2,50.0,97,84,67,29.46,29.14,16,4,27,0.09
2013-11-2,67.5,52.7,40.1,51.0,44.5,39.0,98,77,42,29.41,29.27,6,1,14,0.09
2013-11-3,48.8,41.4,30.4,46.0,28.9,17.0,91,63,32,30.09,29.41,11,4,14,0.00
2013-11-4,43.1,31.3,21.0,20.0,18.0,16.0,88,61,34,30.37,30.10,8,2,15,0.00
2013-11-5,53.2,38.8,20.4,34.0,29.0,18.0,95,70,43,30.38,30.18,5,1,9,0.00
2013-11-6,62.3,48.5,34.8,49.0,41.5,33.0,96,78,51,30.18,29.72,11,1,17,0.00
2013-11-7,64.6,53.1,40.9,58.0,48.9,31.0,97,86,69,29.72,29.36,11,3,19,0.07
2013-11-8,48.6,38.4,26.9,36.0,27.6,22.0,93,66,48,29.77,29.50,18,3,23,0.07
2013-11-9,45.4,35.1,24.2,31.0,25.5,22.0,92,70,43,29.89,29.70,8,1,14,0.00
2013-11-10,55.7,43.3,36.5,44.0,36.1,31.0,97,77,55,29.69,29.42,16,2,24,0.02
2013-11-11,52.5,44.5,36.6,32.0,29.1,26.0,70,56,37,29.78,29.55,19,3,24,0.02
2013-11-12,49.4,35.5,27.2,39.0,25.1,16.0,89,67,51,29.86,29.56,13,4,22,0.03
2013-11-13,36.9,28.1,20.3,18.0,15.4,12.0,82,61,37,29.97,29.84,9,2,14,0.03
2013-11-14,52.1,37.5,24.7,26.0,22.0,18.0,82,56,34,29.82,29.71,9,2,18,0.00
2013-11-15,61.9,41.7,23.4,27.0,22.4,17.0,89,53,18,29.87,29.77,7,1,16,0.00
2013-11-16,62.1,42.0,28.8,35.0,29.4,26.0,89,66,26,29.99,29.86,4,0,7,0.00
2013-11-17,51.6,39.8,28.1,44.0,36.7,26.0,97,89,73,29.98,29.53,4,1,7,0.01
2013-11-18,65.4,55.5,44.5,61.0,44.8,33.0,99,71,41,29.52,29.21,16,3,21,0.26
2013-11-19,47.7,39.5,30.5,33.0,22.9,18.0,61,52,42,29.96,29.35,22,5,22,0.26
2013-11-20,42.0,30.4,18.0,17.0,15.4,12.0,87,56,30,30.30,29.96,14,3,18,0.00
2013-11-21,48.9,31.3,15.8,34.0,21.5,13.0,95,71,36,30.31,30.05,7,1,13,0.00
2013-11-22,46.6,43.4,40.6,46.0,41.2,34.0,97,92,75,30.04,29.50,4,0,5,0.08
2013-11-23,48.1,39.6,28.3,47.0,27.6,18.0,98,64,39,29.60,29.48,19,5,21,0.08
2013-11-24,28.2,23.4,19.9,22.0,6.3,-4.0,84,50,26,29.87,29.49,25,8,30,0.00
2013-11-25,34.1,24.8,15.5,17.0,5.9,-3.0,60,46,25,30.04,29.88,13,3,17,0.00
2013-11-26,40.5,34.7,30.8,33.0,23.2,15.0,95,65,48,30.00,29.71,7,1,13,0.08
2013-11-27,61.6,47.4,33.4,61.0,46.3,32.0,99,96,85,29.70,28.91,11,2,21,1.25
2013-11-28,37.0,29.6,21.3,33.0,16.6,8.0,87,60,39,30.11,29.17,16,5,27,1.25
2013-11-29,34.1,25.7,16.4,19.0,13.2,6.0,88,61,40,30.41,30.11,8,2,13,0.00
2013-11-30,34.1,22.2,10.3,22.0,14.0,7.0,89,72,52,30.47,30.10,5,1,9,0.00
2013-12-1,35.4,32.1,27.1,35.0,30.1,23.0,98,92,80,30.09,29.69,4,1,7,0.08
2013-12-2,39.0,36.9,35.4,38.0,36.3,35.0,98,98,96,29.69,29.60,4,1,6,0.08
2013-12-3,50.9,37.7,27.8,39.0,34.1,27.0,98,88,60,29.63,29.52,6,2,11,0.00
2013-12-4,44.4,32.0,24.3,35.0,27.3,23.0,97,84,56,29.87,29.63,5,0,9,0.00
2013-12-5,44.5,36.0,26.6,44.0,35.0,25.0,98,96,92,29.87,29.60,4,1,7,0.01
2013-12-6,54.5,47.5,33.5,54.0,45.0,32.0,99,91,72,29.82,29.54,8,2,11,0.14
2013-12-7,39.0,32.2,22.8,33.0,28.2,21.0,97,86,66,30.12,29.76,12,2,17,0.12
2013-12-8,30.3,25.9,17.4,23.0,19.1,15.0,94,76,57,30.26,30.12,5,1,7,0.12
2013-12-9,33.5,30.1,25.4,33.0,28.3,19.0,98,93,68,30.16,29.57,5,1,8,0.03
2013-12-10,34.0,29.8,22.8,33.0,27.6,18.0,98,91,75,29.68,29.46,8,1,16,0.01
2013-12-11,30.9,25.2,20.3,21.0,18.6,17.0,88,76,62,29.88,29.68,14,5,20,0.01
2013-12-12,25.1,19.2,6.3,19.0,8.5,3.0,89,65,41,29.95,29.73,10,2,17,0.00
2013-12-13,29.0,21.1,8.3,19.0,12.3,6.0,90,69,56,30.05,29.67,15,4,18,0.00
2013-12-14,18.0,13.4,10.3,16.0,5.4,-2.0,93,72,47,30.27,29.82,8,4,11,0.00
2013-12-15,28.7,23.3,17.9,26.0,21.0,16.0,94,91,78,29.80,29.13,10,4,17,0.00
2013-12-16,28.9,21.7,7.3,21.0,11.8,3.0,93,68,42,29.87,29.41,12,3,23,0.00
2013-12-17,17.2,7.9,-5.1,15.0,4.9,-9.0,92,87,75,29.95,29.63,9,2,13,0.00
2013-12-18,34.3,25.6,16.0,23.0,20.0,14.0,93,80,60,29.75,29.55,9,4,18,0.02
2013-12-19,43.9,30.0,21.4,26.0,22.9,18.0,89,76,47,29.78,29.63,13,2,16,0.11
2013-12-20,54.5,38.8,27.4,37.0,31.1,25.0,94,76,48,29.79,29.58,10,1,11,0.24
2013-12-21,56.6,45.7,33.6,47.0,40.7,32.0,97,83,66,29.64,29.53,7,1,10,0.24
2013-12-22,57.9,41.9,34.1,58.0,41.1,34.0,99,97,93,29.70,29.46,6,1,20,0.01
2013-12-23,37.9,33.9,32.4,38.0,33.5,32.0,99,98,98,29.76,29.65,6,1,13,0.50
2013-12-24,37.0,32.1,25.6,37.0,23.2,14.0,99,71,51,29.88,29.72,9,3,14,0.50
2013-12-25,25.3,18.0,11.2,14.0,5.8,2.0,87,60,43,30.20,29.88,10,3,19,0.00
2013-12-26,28.4,22.3,11.1,26.0,18.2,8.0,92,84,74,30.16,29.77,5,1,11,0.00
2013-12-27,35.2,23.5,15.5,25.0,18.3,14.0,95,82,56,29.95,29.87,7,1,13,0.00
2013-12-28,47.8,29.8,12.8,29.0,22.4,11.0,96,77,46,29.89,29.67,10,2,19,0.01
2013-12-29,41.0,32.6,23.5,37.0,30.8,22.0,97,93,76,29.71,29.12,10,2,16,1.05
2013-12-30,41.0,31.4,18.1,37.0,22.6,11.0,97,73,39,29.83,29.22,11,2,23,0.01
2013-12-31,27.2,18.6,11.1,16.0,8.7,1.0,85,66,48,29.85,29.68,10,2,12,0.01
2014-1-1,28.1,20.0,9.4,14.0,8.9,5.0,88,63,46,30.04,29.86,10,2,16,0.00
2014-1-2,19.5,12.1,1.9,17.0,9.2,-1.0,91,88,82,30.02,29.53,16,6,23,0.00